Marshfield, MA

3:03 AM EST on November 17, 2019 (GMT -0500)
Marshfield

Weather History for KGHG - July, 2019

Change the Weather History Date:

Tuesday, July 9, 2019

  Actual Average (WUND) Record (WUND)
Temperature  
Mean Temperature 77 °F -  
Max Temperature 86 °F - - (-1)
Min Temperature 68 °F - - (-1)
Cooling Degree Days 12    
Growing Degree Days 27 (Base 50)    
Moisture  
Dew Point 58 °F    
Average Humidity 51    
Maximum Humidity 88    
Minimum Humidity 31    
Precipitation  
Precipitation 0.00 in - - ()
Sea Level Pressure  
Sea Level Pressure 29.99 in    
Wind  
Wind Speed 5 mph (SSW)    
Max Wind Speed 8 mph    
Max Gust Speed 14 mph    
Visibility 10 miles    
Events      
Averages and records for this station are not official NWS values.
T = Trace of Precipitation, MM = Missing Value Source: NWS Daily Summary

Daily Weather History Graph

Daily Weather History Graph

Search for Another Location

Airport or City:

Astronomy

Jul. 09, 2019 Rise Set
Actual Time 5:15 AM EDT 8:20 PM EDT
Civil Twilight 4:41 AM EDT 8:54 PM EDT
Nautical Twilight 3:58 AM EDT 9:37 PM EDT
Astronomical Twilight 3:06 AM EDT 10:28 PM EDT
Moon 1:09 PM EDT (7/9) 12:29 AM EDT (7/9)
Length of Visible Light 16h 12m
Length of Day
15h 04m
First Quarter, 52% of the Moon is Illuminated
Jul 9
First Quarter
Jul 16
Full
Jul 24
Last Quarter
Jul 31
New
Aug 7
First Quarter

Hourly Weather History & Observations

Time (EDT) Temp. Heat Index Dew Point Humidity Pressure Visibility Wind Dir Wind Speed Gust Speed Precip Events Conditions
11:15 AM 84.2 °F - 51.8 °F 33% 30.00 in 10.0 mi Variable 6.9 mph - N/A   Clear
11:35 AM 84.2 °F - 51.8 °F 33% 30.01 in 10.0 mi North 6.9 mph - N/A   Clear
11:55 AM 82.4 °F 81.7 °F 55.4 °F 39% 30.01 in 10.0 mi Variable 6.9 mph 12.7 mph N/A   Clear
12:15 PM 84.2 °F 82.8 °F 53.6 °F 35% 30.01 in 10.0 mi Variable 6.9 mph 13.8 mph N/A   Clear
12:35 PM 84.2 °F - 51.8 °F 33% 30.00 in 10.0 mi Variable 4.6 mph 12.7 mph N/A   Clear
12:55 PM 84.2 °F 82.8 °F 53.6 °F 35% 29.99 in 10.0 mi NNE 8.1 mph - N/A   Clear
1:15 PM 86.0 °F 84.2 °F 53.6 °F 33% 29.99 in 10.0 mi Variable 5.8 mph - N/A   Clear
1:35 PM 84.2 °F - 51.8 °F 33% 29.98 in 10.0 mi Variable 6.9 mph - N/A   Clear
1:55 PM 86.0 °F - 51.8 °F 31% 29.98 in 10.0 mi Variable 5.8 mph 12.7 mph N/A   Clear
2:15 PM 86.0 °F - 51.8 °F 31% 29.99 in 10.0 mi NE 8.1 mph - N/A   Clear
2:35 PM 84.2 °F 82.8 °F 53.6 °F 35% 29.99 in 10.0 mi Variable 5.8 mph - N/A   Clear
2:55 PM 82.4 °F 81.7 °F 55.4 °F 39% 29.99 in 10.0 mi Variable 4.6 mph - N/A   Clear
3:15 PM 84.2 °F 82.8 °F 53.6 °F 35% 29.99 in 10.0 mi Variable 4.6 mph - N/A   Clear
3:35 PM 84.2 °F 82.8 °F 53.6 °F 35% 29.99 in 10.0 mi Variable 4.6 mph - N/A   Clear
3:55 PM 84.2 °F 83.5 °F 57.2 °F 40% 29.98 in 10.0 mi Variable 4.6 mph - N/A   Clear
4:15 PM 82.4 °F 82.5 °F 59.0 °F 45% 29.98 in 10.0 mi ESE 5.8 mph - N/A   Clear
4:35 PM 82.4 °F 82.0 °F 57.2 °F 42% 29.98 in 10.0 mi SSE 4.6 mph - N/A   Clear
4:55 PM 82.4 °F 81.7 °F 55.4 °F 39% 29.98 in 10.0 mi SSE 4.6 mph - N/A   Clear
5:15 PM 84.2 °F - 51.8 °F 33% 29.97 in 10.0 mi Variable 5.8 mph - N/A   Clear
5:35 PM 84.2 °F 82.8 °F 53.6 °F 35% 29.97 in 10.0 mi Variable 4.6 mph - N/A   Clear
5:55 PM 82.4 °F 81.7 °F 55.4 °F 39% 29.97 in 10.0 mi SSE 5.8 mph - N/A   Clear
6:15 PM 82.4 °F 82.0 °F 57.2 °F 42% 29.97 in 10.0 mi Variable 4.6 mph - N/A   Clear
6:35 PM 82.4 °F 82.5 °F 59.0 °F 45% 29.97 in 10.0 mi SSE 4.6 mph - N/A   Clear
6:55 PM 80.6 °F 81.1 °F 59.0 °F 48% 29.98 in 10.0 mi SSE 3.5 mph - N/A   Clear
7:15 PM 80.6 °F 81.1 °F 59.0 °F 48% 29.97 in 10.0 mi South 4.6 mph - N/A   Clear
7:35 PM 78.8 °F - 62.6 °F 57% 29.97 in 10.0 mi Calm Calm - N/A   Clear
7:55 PM 77.0 °F - 62.6 °F 61% 29.98 in 10.0 mi SSW 3.5 mph - N/A   Clear
8:15 PM 75.2 °F - 62.6 °F 65% 29.98 in 10.0 mi SW 4.6 mph - N/A   Clear
8:35 PM 75.2 °F - 64.4 °F 69% 29.99 in 10.0 mi WSW 4.6 mph - N/A   Clear
8:55 PM 73.4 °F - 64.4 °F 73% 29.99 in 10.0 mi SW 3.5 mph - N/A   Clear
9:15 PM 73.4 °F - 64.4 °F 73% 30.00 in 10.0 mi Calm Calm - N/A   Clear
9:35 PM 73.4 °F - 64.4 °F 73% 30.00 in 10.0 mi WSW 3.5 mph - N/A   Clear
9:55 PM 71.6 °F - 64.4 °F 78% 30.01 in 10.0 mi Calm Calm - N/A   Clear
10:15 PM 69.8 °F - 64.4 °F 83% 30.01 in 10.0 mi Calm Calm - N/A   Clear
10:35 PM 69.8 °F - 64.4 °F 83% 30.01 in 10.0 mi West 4.6 mph - N/A   Clear
10:55 PM 69.8 °F - 64.4 °F 83% 30.00 in 10.0 mi West 3.5 mph - N/A   Clear
11:15 PM 68.0 °F - 64.4 °F 88% 30.00 in 10.0 mi Calm Calm - N/A   Clear
11:35 PM 69.8 °F - 64.4 °F 83% 30.01 in 10.0 mi WSW 3.5 mph - N/A   Clear
11:55 PM 69.8 °F - 66.2 °F 88% 30.01 in 10.0 mi West 4.6 mph - N/A   Clear